Le Mars, IA

10:31 PM CDT on May 24, 2018 (GMT -0500)
Le Mars Municipal

Weather History for KLRJ - May, 2013

Change the Weather History Date:

Wednesday, May 22, 2013

  Actual Average Record
Temperature  
Mean Temperature 52 °F -  
Max Temperature 55 °F 75 °F 94 °F (1975)
Min Temperature 48 °F 52 °F 34 °F (1993)
Degree Days  
Heating Degree Days 14    
Growing Degree Days 2 (Base 50)    
Moisture  
Dew Point 48 °F    
Average Humidity 85    
Maximum Humidity 100    
Minimum Humidity 72    
Precipitation  
Precipitation 0.09 in - - ()
Sea Level Pressure  
Sea Level Pressure 29.80 in    
Wind  
Wind Speed 10 mph (North)    
Max Wind Speed 17 mph    
Max Gust Speed 22 mph    
Visibility 8 miles    
Events Rain    
Averages and records for this station are not official NWS values.
T = Trace of Precipitation, MM = Missing Value Source: NWS Daily Summary

Daily Weather History Graph

Daily Weather History Graph

Search for Another Location

Airport or City:

Astronomy

May. 22, 2013 Rise Set
Actual Time 5:55 AM CDT 8:48 PM CDT
Civil Twilight 5:22 AM CDT 9:21 PM CDT
Nautical Twilight 4:40 AM CDT 10:03 PM CDT
Astronomical Twilight 3:51 AM CDT 10:53 PM CDT
Moon 6:08 PM CDT (5/22) 4:04 AM CDT (5/22)
Length of Visible Light 15h 59m
Length of Day
14h 52m
Waxing Gibbous, 91% of the Moon is Illuminated
May 22
Waxing Gibbous
May 24
Full
May 31
Last Quarter
Jun 8
New
Jun 16
First Quarter

Hourly Weather History & Observations

Time (CDT) Temp. Dew Point Humidity Pressure Visibility Wind Dir Wind Speed Gust Speed Precip Events Conditions
12:15 AM 53.6 °F 51.8 °F 94% 29.67 in 5.0 mi NW 10.4 mph - N/A   Overcast
12:35 AM 53.6 °F 51.8 °F 94% 29.67 in 10.0 mi NW 8.1 mph - N/A   Overcast
12:55 AM 53.6 °F 51.8 °F 94% 29.67 in 5.0 mi WNW 8.1 mph - N/A   Overcast
1:15 AM 55.4 °F 53.6 °F 94% 29.67 in 4.0 mi NW 6.9 mph - N/A Rain Rain
1:35 AM 55.4 °F 53.6 °F 94% 29.68 in 3.0 mi NNW 9.2 mph - 0.01 in   Heavy Drizzle
1:55 AM 53.6 °F 51.8 °F 94% 29.68 in 3.0 mi NNW 9.2 mph - 0.02 in   Heavy Drizzle
2:15 AM 53.6 °F 51.8 °F 94% 29.68 in 4.0 mi NNW 10.4 mph - 0.01 in Rain Rain
2:35 AM 53.6 °F 51.8 °F 94% 29.68 in 4.0 mi NNW 9.2 mph - 0.01 in   Light Drizzle
2:55 AM 53.6 °F 51.8 °F 94% 29.69 in 7.0 mi NNW 8.1 mph - 0.01 in   Overcast
3:15 AM 53.6 °F 51.8 °F 94% 29.69 in 3.0 mi NNW 9.2 mph - N/A Rain Light Rain
3:35 AM 53.6 °F 51.8 °F 94% 29.69 in 3.0 mi North 9.2 mph - N/A   Overcast
3:55 AM 53.6 °F 51.8 °F 94% 29.69 in 7.0 mi North 9.2 mph - N/A   Overcast
4:15 AM 51.8 °F 51.8 °F 100% 29.70 in 7.0 mi NNW 8.1 mph - N/A   Overcast
4:35 AM 51.8 °F 50.0 °F 94% 29.70 in 10.0 mi NNW 8.1 mph - N/A   Overcast
4:55 AM 51.8 °F 50.0 °F 94% 29.70 in 5.0 mi NNW 9.2 mph - N/A   Drizzle
5:15 AM 51.8 °F 48.2 °F 88% 29.70 in 3.0 mi NNW 10.4 mph 17.3 mph N/A   Drizzle
5:35 AM 51.8 °F 48.2 °F 88% 29.71 in 4.0 mi North 8.1 mph - 0.01 in Rain Light Rain
5:55 AM 50.0 °F 48.2 °F 94% 29.71 in 5.0 mi North 6.9 mph - 0.02 in Rain Rain
6:15 AM 50.0 °F 48.2 °F 94% 29.72 in 5.0 mi North 11.5 mph - 0.01 in Rain Rain
6:35 AM 48.2 °F 46.4 °F 93% 29.72 in 7.0 mi North 6.9 mph 16.1 mph 0.01 in   Drizzle
6:55 AM 50.0 °F 46.4 °F 87% 29.72 in 10.0 mi North 9.2 mph - 0.02 in   Drizzle
7:15 AM 48.2 °F 46.4 °F 93% 29.73 in 10.0 mi North 15.0 mph 19.6 mph N/A Rain Rain
7:35 AM 48.2 °F 46.4 °F 93% 29.73 in 10.0 mi North 9.2 mph - 0.01 in Rain Rain
7:55 AM 50.0 °F 46.4 °F 87% 29.73 in 10.0 mi North 8.1 mph - 0.01 in   Drizzle
8:15 AM 48.2 °F 46.4 °F 93% 29.74 in 10.0 mi North 12.7 mph 18.4 mph N/A   Light Drizzle
8:35 AM 48.2 °F 46.4 °F 93% 29.75 in 7.0 mi North 9.2 mph - N/A   Light Drizzle
8:55 AM 50.0 °F 46.4 °F 87% 29.75 in 5.0 mi North 11.5 mph 18.4 mph 0.01 in Rain Rain
9:15 AM 50.0 °F 46.4 °F 87% 29.76 in 10.0 mi North 15.0 mph 20.7 mph N/A   Overcast
9:35 AM 51.8 °F 46.4 °F 82% 29.77 in 10.0 mi North 17.3 mph 21.9 mph N/A   Overcast
9:55 AM 51.8 °F 46.4 °F 82% 29.77 in 10.0 mi North 16.1 mph - N/A   Overcast
10:15 AM 51.8 °F 46.4 °F 82% 29.77 in 10.0 mi North 9.2 mph - N/A   Light Drizzle
10:35 AM 51.8 °F 46.4 °F 82% 29.78 in 10.0 mi North 11.5 mph - N/A   Overcast
10:55 AM 51.8 °F 46.4 °F 82% 29.78 in 10.0 mi North 9.2 mph - N/A Rain Rain
11:15 AM 53.6 °F 46.4 °F 77% 29.79 in 10.0 mi North 10.4 mph - N/A   Overcast
11:35 AM 53.6 °F 48.2 °F 82% 29.79 in 10.0 mi North 11.5 mph - N/A Rain Light Rain
11:55 AM 53.6 °F 48.2 °F 82% 29.79 in 10.0 mi NNW 10.4 mph - N/A   Light Drizzle
12:15 PM 53.6 °F 48.2 °F 82% 29.80 in 7.0 mi North 11.5 mph 16.1 mph N/A   Overcast
12:35 PM 53.6 °F 48.2 °F 82% 29.80 in 3.0 mi North 12.7 mph - N/A Rain Light Rain
12:55 PM 53.6 °F 46.4 °F 77% 29.80 in 10.0 mi NNW 10.4 mph - N/A   Overcast
1:15 PM 55.4 °F 48.2 °F 77% 29.80 in 10.0 mi North 12.7 mph - N/A   Overcast
1:35 PM 55.4 °F 46.4 °F 72% 29.81 in 10.0 mi NNW 12.7 mph 17.3 mph N/A   Overcast
1:55 PM 55.4 °F 46.4 °F 72% 29.81 in 10.0 mi North 12.7 mph - N/A   Overcast
2:15 PM 53.6 °F 48.2 °F 82% 29.82 in 7.0 mi NNW 9.2 mph - N/A Rain Light Rain
2:35 PM 53.6 °F 46.4 °F 77% 29.83 in 10.0 mi NNW 10.4 mph 18.4 mph N/A   Overcast
2:55 PM 53.6 °F 46.4 °F 77% 29.83 in 10.0 mi NNW 10.4 mph - N/A   Overcast
3:15 PM 53.6 °F 46.4 °F 77% 29.83 in 10.0 mi North 13.8 mph 17.3 mph N/A   Overcast
3:35 PM 53.6 °F 48.2 °F 82% 29.84 in 7.0 mi North 11.5 mph - N/A   Overcast
3:55 PM 53.6 °F 48.2 °F 82% 29.84 in 7.0 mi North 9.2 mph 17.3 mph N/A   Overcast
4:15 PM 53.6 °F 46.4 °F 77% 29.83 in 10.0 mi North 15.0 mph - N/A   Overcast
4:35 PM 53.6 °F 46.4 °F 77% 29.84 in 7.0 mi North 12.7 mph 18.4 mph N/A   Overcast
4:55 PM 53.6 °F 46.4 °F 77% 29.84 in 10.0 mi NNW 16.1 mph 20.7 mph N/A   Overcast
5:15 PM 53.6 °F 46.4 °F 77% 29.85 in 10.0 mi North 12.7 mph 21.9 mph N/A   Overcast
5:35 PM 55.4 °F 46.4 °F 72% 29.85 in 10.0 mi North 15.0 mph 20.7 mph N/A   Overcast
5:55 PM 55.4 °F 46.4 °F 72% 29.86 in 10.0 mi North 15.0 mph - N/A   Overcast
6:15 PM 55.4 °F 46.4 °F 72% 29.86 in 10.0 mi North 12.7 mph 18.4 mph N/A   Overcast
6:35 PM 55.4 °F 46.4 °F 72% 29.87 in 10.0 mi North 11.5 mph - N/A   Overcast
6:55 PM 55.4 °F 46.4 °F 72% 29.87 in 10.0 mi North 12.7 mph - N/A   Overcast
7:15 PM 53.6 °F 46.4 °F 77% 29.88 in 10.0 mi North 12.7 mph 21.9 mph N/A   Overcast
7:35 PM 53.6 °F 46.4 °F 77% 29.90 in 10.0 mi North 13.8 mph - N/A   Overcast
7:55 PM 53.6 °F 46.4 °F 77% 29.91 in 10.0 mi North 10.4 mph 17.3 mph N/A   Overcast
8:15 PM 53.6 °F 46.4 °F 77% 29.92 in 10.0 mi North 10.4 mph 16.1 mph N/A   Overcast
8:35 PM 51.8 °F 48.2 °F 88% 29.92 in 5.0 mi North 10.4 mph - N/A   Overcast
8:55 PM 51.8 °F 48.2 °F 88% 29.93 in 10.0 mi North 9.2 mph - N/A   Overcast
9:15 PM 51.8 °F 48.2 °F 88% 29.93 in 10.0 mi North 8.1 mph - N/A   Overcast
9:35 PM 51.8 °F 48.2 °F 88% 29.95 in 10.0 mi North 9.2 mph 18.4 mph N/A   Overcast
9:55 PM 51.8 °F 48.2 °F 88% 29.95 in 10.0 mi North 8.1 mph - N/A   Overcast
10:15 PM 51.8 °F 48.2 °F 88% 29.96 in 10.0 mi North 6.9 mph - N/A   Overcast
10:35 PM 51.8 °F 48.2 °F 88% 29.97 in 10.0 mi North 6.9 mph - N/A   Overcast
10:55 PM 51.8 °F 46.4 °F 82% 29.98 in 10.0 mi North 10.4 mph - N/A   Overcast
11:15 PM 51.8 °F 46.4 °F 82% 29.98 in 10.0 mi NNE 10.4 mph 16.1 mph N/A   Overcast
11:35 PM 51.8 °F 46.4 °F 82% 29.99 in 10.0 mi North 8.1 mph - N/A   Overcast
11:55 PM 51.8 °F 46.4 °F 82% 29.99 in 10.0 mi North 10.4 mph - N/A   Overcast